Regional Weather Roundup
Issued by NWS

Home | Current Version | Previous Version | Graphics & Text | Print | Product List | Glossary On
Versions: 1 2 3 4 5 6 7 8 9 10 11 12 13 14 15 16 17 18 19 20 21 22 23 24 25 26 27 28 29 30 31 32 33 34 35 36 37 38 39 40 41 42 43 44 45 46 47 48 49 50
478
ASUS45 KSLC 240010
RWRUT

UTAH REGIONAL WEATHER ROUNDUP
NATIONAL WEATHER SERVICE SALT LAKE CITY UT
600 PM MDT TUE AUG 23 2016

UTZ001>011-023>025-240100-

NORTHERN UTAH

CITY           SKY/WX    TMP DP  RH WIND       PRES   REMARKS
BRIGHAM CITY     N/A     86  14   6 SW5       30.02F
HILL AFB       SUNNY     83  28  13 W10       30.06F
LOGAN          SUNNY     84  25  11 NW9       30.02F
OGDEN          SUNNY     85  25  11 SW5       30.03F
PROVO AIRPORT  MOSUNNY   84  37  18 VRB5      30.03F
SALT LAKE CITY MOSUNNY   88  28  11 NE8       30.01F
VERNAL         CLOUDY    78  37  22 N12       30.09R
WENDOVER       SUNNY     90  28  11 W22G29    30.01S
HEBER CITY     MOSUNNY   82  28  14 CALM      30.09S
WEST JORDAN    SUNNY     85  35  16 NW15      30.04F

$$

UTZ012>022-026-027-240100-

SOUTHERN/CENTRAL UTAH

CITY           SKY/WX    TMP DP  RH WIND       PRES   REMARKS
BLANDING       CLOUDY    56  54  90 E10       30.34S
BRYCE CANYON   CLOUDY    59  43  55 E5        30.32F
CEDAR CITY     PTSUNNY   76  48  37 SW17      30.16R
DELTA          MOSUNNY   86  30  13 W7        30.05S
MILFORD        PTSUNNY   83  41  22 S10       30.08S
MOAB/CYNLANDS  PTSUNNY   79  50  36 SE14      30.07S
PRICE          CLOUDY    71  42  35 S3        30.15R
ST GEORGE      CLEAR     90  48  24 W9        30.01S

$$

REGIONAL REPORTS     COLORADO/ARIZONA

CITY           SKY/WX    TMP DP  RH WIND       PRES   REMARKS
CRAIG, CO      CLOUDY    76  32  20 W9        30.13R
GRAND JUNCTION CLOUDY    77  48  35 SW7       30.10S
RIFLE          CLOUDY    79  42  26 VRB5      30.11S
MONTROSE       CLOUDY    67  48  50 S16       30.21R
CORTEZ         LGT RAIN  56  54  93 E8        30.29S FOG
PAGE, AZ       CLOUDY    78  45  30 NW9G20    30.10R
GRAND CANYON   PTSUNNY   70  47  43 NE6       30.27S
KINGMAN        SUNNY     85  53  33 SW8       30.08F
FLAGSTAFF      PTSUNNY   61  50  67 SW8       30.29F

$$

REGIONAL REPORTS    NEVADA/IDAHO/WYOMING

CITY           SKY/WX    TMP DP  RH WIND       PRES   REMARKS
LAS VEGAS, NV  MOSUNNY   90  56  31 NE7       29.92F
ELY            MOSUNNY   80  27  14 NW14G28   30.16S
ELKO           SUNNY     86  16   7 W21G31    30.10S
POCATELLO, ID  SUNNY     78  21  12 SW18      30.08F
BURLEY         SUNNY     74  30  19 W14G23    30.07F
EVANSTON, WY   SUNNY     74  20  13 W21G30    30.21F
ROCK SPRINGS   CLOUDY    77  23  13 W24G31    30.14S

$$




USA.gov is the U.S. government's official web portal to all federal, state and local government web resources and services.